Weather History for KAVL - November, 2013

Change the Weather History Date:

Sunday, November 17, 2013

  Actual Average Record
Temperature  
Mean Temperature 56 °F 47 °F  
Max Temperature 59 °F 58 °F 78 °F (1955)
Min Temperature 53 °F 35 °F 15 °F (1933)
Degree Days  
Heating Degree Days 9 18  
Month to date heating degree days 308 268  
Since 1 July heating degree days 559 603  
Cooling Degree Days 0 0  
Month to date cooling degree days 0 0  
Year to date cooling degree days 860 862  
Growing Degree Days 6 (Base 50)    
Moisture  
Dew Point 54 °F    
Average Humidity 90    
Maximum Humidity 100    
Minimum Humidity 80    
Precipitation  
Precipitation 0.39 in 0.13 in 1.50 in (1927)
Month to date precipitation 0.71 1.89  
Year to date precipitation 64.71 40.22  
Snow  
Snow 0.00 in 0.00 in 0.10 in (1923)
Month to date snowfall T 0.0  
Since 1 July snowfall T 0.0  
Since 1 September snowfall T 0.0  
Snow Depth 0.00 in    
Sea Level Pressure  
Sea Level Pressure 30.06 in    
Wind  
Wind Speed 5 mph (SSE)    
Max Wind Speed 13 mph    
Max Gust Speed 16 mph    
Visibility 6 miles    
Events Rain    
T = Trace of Precipitation, MM = Missing Value Source: NWS Daily Summary

Daily Weather History Graph

Daily Weather History Graph

Search for Another Location

Airport or City:

Trip Planner

Search our weather history database for the weather conditions in past years. The results will help you decide how hot, cold, wet, or windy it might be!

Date:

Astronomy

Nov. 17, 2013 Rise Set
Actual Time 7:07 AM EST 5:22 PM EST
Civil Twilight 6:40 AM EST 5:49 PM EST
Nautical Twilight 6:09 AM EST 6:20 PM EST
Astronomical Twilight 5:39 AM EST 6:50 PM EST
Moon 5:38 PM EST (11/17) 7:01 AM EST (11/17)
Length of Visible Light 11h 09m
Length of Day
10h 14m
Full, 100% of the Moon is Illuminated
Nov 17
Full
Nov 25
Last Quarter
Dec 2
New
Dec 9
First Quarter
Dec 17
Full

Hourly Weather History & Observations

Time (EST) Temp. Dew Point Humidity Pressure Visibility Wind Dir Wind Speed Gust Speed Precip Events Conditions
12:02 AM 53.6 °F 51.8 °F 94% 30.22 in 8.0 mi SE 5.8 mph - N/A   Overcast
12:09 AM 53.6 °F 51.8 °F 94% 30.22 in 8.0 mi SSE 6.9 mph - N/A   Overcast
12:54 AM 54.0 °F 51.1 °F 90% 30.17 in 9.0 mi SSE 9.2 mph - N/A   Overcast
1:28 AM 53.6 °F 51.8 °F 94% 30.20 in 8.0 mi Calm Calm - N/A   Mostly Cloudy
1:54 AM 53.1 °F 51.1 °F 93% 30.15 in 9.0 mi SE 4.6 mph - N/A   Overcast
2:54 AM 55.0 °F 52.0 °F 89% 30.14 in 10.0 mi SSE 6.9 mph - N/A   Overcast
3:54 AM 54.0 °F 52.0 °F 93% 30.12 in 9.0 mi SE 5.8 mph - N/A   Overcast
4:01 AM 53.6 °F 51.8 °F 94% 30.16 in 9.0 mi Calm Calm - N/A   Overcast
4:15 AM 53.6 °F 51.8 °F 94% 30.15 in 10.0 mi ESE 3.5 mph - N/A   Overcast
4:54 AM 54.0 °F 52.0 °F 93% 30.11 in 10.0 mi SE 4.6 mph - N/A   Overcast
5:54 AM 54.0 °F 52.0 °F 93% 30.12 in 9.0 mi South 6.9 mph - N/A   Overcast
6:33 AM 55.4 °F 51.8 °F 88% 30.14 in 9.0 mi SE 5.8 mph - N/A   Overcast
6:54 AM 55.0 °F 52.0 °F 89% 30.12 in 9.0 mi SSE 4.6 mph - N/A   Overcast
7:49 AM 55.4 °F 53.6 °F 94% 30.16 in 8.0 mi SSE 4.6 mph - N/A   Overcast
7:54 AM 55.0 °F 53.1 °F 93% 30.12 in 8.0 mi SSE 3.5 mph - N/A   Overcast
8:06 AM 55.4 °F 53.6 °F 94% 30.15 in 9.0 mi SSE 5.8 mph - N/A   Overcast
8:33 AM 55.4 °F 53.6 °F 94% 30.15 in 10.0 mi SSE 9.2 mph - N/A   Overcast
8:54 AM 57.0 °F 53.1 °F 87% 30.12 in 10.0 mi South 9.2 mph - N/A   Overcast
9:36 AM 57.2 °F 53.6 °F 88% 30.14 in 10.0 mi SSE 6.9 mph - N/A   Overcast
9:54 AM 57.9 °F 54.0 °F 87% 30.12 in 10.0 mi SSE 5.8 mph - N/A   Overcast
10:19 AM 57.2 °F 53.6 °F 88% 30.15 in 5.0 mi SE 5.8 mph - N/A   Overcast
10:54 AM 59.0 °F 54.0 °F 83% 30.10 in 5.0 mi Variable 5.8 mph - N/A   Haze
11:02 AM 59.0 °F 53.6 °F 82% 30.13 in 10.0 mi SE 8.1 mph - N/A   Overcast
11:30 AM 59.0 °F 55.4 °F 88% 30.12 in 10.0 mi SSE 6.9 mph - N/A   Overcast
11:54 AM 59.0 °F 55.0 °F 87% 30.07 in 8.0 mi SSE 5.8 mph - N/A   Overcast
12:54 PM 57.9 °F 55.0 °F 90% 30.04 in 5.0 mi SE 8.1 mph 16.1 mph 0.00 in Rain Light Rain
1:54 PM 57.0 °F 55.0 °F 93% 30.01 in 2.0 mi SE 5.8 mph - 0.01 in Rain Light Rain
2:03 PM 57.2 °F 55.4 °F 94% 30.05 in 1.8 mi SE 6.9 mph - 0.00 in Rain Light Rain
2:10 PM 57.2 °F 55.4 °F 94% 30.05 in 1.8 mi SE 4.6 mph - 0.00 in Rain Light Rain
2:25 PM 57.2 °F 55.4 °F 94% 30.05 in 1.2 mi SSE 5.8 mph - 0.02 in Rain Light Rain
2:31 PM 57.2 °F 55.4 °F 94% 30.04 in 1.5 mi SE 5.8 mph - 0.03 in Rain Rain
2:34 PM 57.2 °F 55.4 °F 94% 30.04 in 1.5 mi SE 4.6 mph - 0.04 in Rain Rain
2:40 PM 57.2 °F 55.4 °F 94% 30.04 in 2.5 mi Calm Calm - 0.05 in Rain Light Rain
2:47 PM 57.2 °F 55.4 °F 94% 30.03 in 3.0 mi SE 4.6 mph - 0.05 in Rain Rain
2:54 PM 57.0 °F 55.9 °F 96% 29.99 in 3.0 mi ESE 4.6 mph - 0.06 in Rain Light Rain
3:01 PM 57.2 °F 55.4 °F 94% 30.04 in 2.5 mi Calm Calm - 0.01 in Rain Light Rain
3:08 PM 57.2 °F 55.4 °F 94% 30.05 in 4.0 mi SSW 3.5 mph - 0.02 in Rain Light Rain
3:18 PM 57.2 °F 55.4 °F 94% 30.03 in 1.8 mi Calm Calm - 0.04 in Rain Rain
3:34 PM 57.2 °F 55.4 °F 94% 30.03 in 2.0 mi SSE 4.6 mph - 0.10 in Rain Rain
3:45 PM 57.2 °F 55.4 °F 94% 30.03 in 2.0 mi SSE 5.8 mph - 0.15 in Rain Heavy Rain
3:54 PM 57.0 °F 55.9 °F 96% 29.99 in 2.5 mi SSE 6.9 mph - 0.19 in Rain Heavy Rain
4:03 PM 57.2 °F 55.4 °F 94% 30.02 in 4.0 mi SSE 8.1 mph - 0.03 in Rain Rain
4:21 PM 57.2 °F 55.4 °F 94% 30.01 in 5.0 mi SSE 5.8 mph - 0.05 in Rain Rain
4:54 PM 57.0 °F 55.9 °F 96% 29.98 in 10.0 mi SSE 6.9 mph - 0.06 in   Overcast
5:02 PM 57.2 °F 55.4 °F 94% 30.01 in 2.0 mi South 6.9 mph - 0.00 in Rain Light Rain
5:37 PM 55.4 °F 55.4 °F 100% 30.00 in 2.0 mi SSE 6.9 mph - 0.02 in Rain Light Rain
5:47 PM 55.4 °F 55.4 °F 100% 30.00 in 2.0 mi South 5.8 mph - 0.04 in Rain Light Rain
5:54 PM 55.9 °F 55.0 °F 97% 29.97 in 2.0 mi South 4.6 mph - 0.04 in Rain Light Rain
6:24 PM 55.4 °F 55.4 °F 100% 30.00 in 2.0 mi South 5.8 mph - 0.00 in Rain Light Rain
6:54 PM 55.9 °F 55.0 °F 97% 29.96 in 2.0 mi SSE 5.8 mph - 0.01 in Rain Light Rain
7:01 PM 55.4 °F 55.4 °F 100% 30.00 in 10.0 mi SSE 5.8 mph - 0.00 in Rain Light Rain
7:08 PM 55.4 °F 55.4 °F 100% 30.00 in 2.0 mi SSE 5.8 mph - 0.01 in Rain Light Rain
7:30 PM 55.4 °F 55.4 °F 100% 30.00 in 2.0 mi South 3.5 mph - 0.01 in Rain Light Rain
7:54 PM 55.9 °F 55.0 °F 97% 29.95 in 2.0 mi SE 3.5 mph - 0.01 in Rain Light Rain
8:01 PM 55.4 °F 55.4 °F 100% 29.98 in 3.0 mi SE 4.6 mph - 0.00 in   Overcast
8:54 PM 55.9 °F 55.0 °F 97% 29.94 in 3.0 mi SE 5.8 mph - 0.00 in Rain Light Rain
9:03 PM 55.4 °F 55.4 °F 100% 29.98 in 3.0 mi SE 4.6 mph - 0.00 in Rain Light Rain
9:54 PM 57.0 °F 55.9 °F 96% 29.93 in 3.0 mi SE 5.8 mph - 0.01 in   Overcast
10:01 PM 57.2 °F 55.4 °F 94% 29.97 in 10.0 mi SE 4.6 mph - N/A   Overcast
10:38 PM 57.2 °F 55.4 °F 94% 29.96 in 10.0 mi Calm Calm - N/A   Mostly Cloudy
10:54 PM 57.0 °F 55.9 °F 96% 29.92 in 10.0 mi Calm Calm - N/A   Mostly Cloudy
11:11 PM 55.4 °F 55.4 °F 100% 29.95 in 10.0 mi SSE 3.5 mph - N/A   Overcast
11:54 PM 57.0 °F 55.9 °F 96% 29.89 in 10.0 mi Calm Calm - N/A   Mostly Cloudy